When you browse on this site, cookies collect data to enhance your experience and personalize the content and advertising you see.
Visit our Privacy Policy to learn more. By continuing to use the site, you agree to this use of cookies and data.

Tiempo cada hora Podgornyy

Hoy, 2 Julio, Jueves

Tiempo Temperatura Precipitaciones Viento Presión Humedad
00:00 +16°C° 0 mm 2 mps 735 mmHg 91%
01:00 +15°C° 0 mm 2 mps 735 mmHg 92%
02:00 +15°C° 0 mm 2 mps 736 mmHg 93%
03:00 +15°C° 0 mm 2 mps 736 mmHg 93%
04:00 +16°C° 0 mm 2 mps 736 mmHg 92%
05:00 +16°C° 0 mm 2 mps 736 mmHg 92%
06:00 +18°C° 0 mm 2 mps 736 mmHg 86%
07:00 +19°C° 0 mm 2 mps 737 mmHg 81%
08:00 +21°C° 0 mm 2 mps 737 mmHg 76%
09:00 +23°C° 0 mm 2 mps 737 mmHg 73%
10:00 +24°C° 0 mm 3 mps 737 mmHg 70%
11:00 +25°C° 0 mm 3 mps 737 mmHg 67%
12:00 +25°C° 0.2 mm 3 mps 737 mmHg 68%
13:00 +26°C° 0.2 mm 4 mps 737 mmHg 68%
14:00 +26°C° 0.2 mm 4 mps 737 mmHg 68%
15:00 +26°C° 0.3 mm 4 mps 737 mmHg 72%
16:00 +25°C° 0.3 mm 3 mps 736 mmHg 75%
17:00 +25°C° 0.3 mm 3 mps 736 mmHg 78%
18:00 +24°C° 0.3 mm 3 mps 736 mmHg 82%
19:00 +21°C° 0.3 mm 3 mps 737 mmHg 86%
20:00 +20°C° 0.3 mm 2 mps 737 mmHg 89%
21:00 +20°C° 0.1 mm 3 mps 737 mmHg 91%
22:00 +19°C° 0.1 mm 3 mps 737 mmHg 92%
23:00 +19°C° 0.1 mm 3 mps 736 mmHg 94%

Mañana, 3 Julio, Viernes

Tiempo Temperatura Precipitaciones Viento Presión Humedad
00:00 +18°C° 0 mm 3 mps 737 mmHg 94%
01:00 +18°C° 0 mm 3 mps 737 mmHg 95%
02:00 +18°C° 0 mm 2 mps 737 mmHg 95%
03:00 +18°C° 0 mm 3 mps 737 mmHg 95%
04:00 +18°C° 0 mm 3 mps 737 mmHg 95%
05:00 +19°C° 0 mm 3 mps 737 mmHg 95%
06:00 +20°C° 0 mm 3 mps 737 mmHg 92%
07:00 +22°C° 0 mm 3 mps 737 mmHg 89%
08:00 +24°C° 0 mm 3 mps 737 mmHg 86%
09:00 +25°C° 0.4 mm 4 mps 738 mmHg 82%
10:00 +26°C° 0.4 mm 4 mps 738 mmHg 79%
11:00 +27°C° 0.4 mm 4 mps 738 mmHg 75%
12:00 +27°C° 0.7 mm 4 mps 738 mmHg 75%
13:00 +27°C° 0.7 mm 4 mps 737 mmHg 75%
14:00 +27°C° 0.7 mm 4 mps 737 mmHg 75%
15:00 +27°C° 0.6 mm 3 mps 737 mmHg 77%
16:00 +27°C° 0.6 mm 3 mps 737 mmHg 79%
17:00 +27°C° 0.6 mm 2 mps 737 mmHg 81%
18:00 +25°C° 0.1 mm 2 mps 737 mmHg 84%
19:00 +24°C° 0.1 mm 2 mps 737 mmHg 87%
20:00 +22°C° 0.1 mm 3 mps 737 mmHg 90%
21:00 +21°C° 0.5 mm 3 mps 737 mmHg 91%
22:00 +21°C° 0.5 mm 3 mps 737 mmHg 91%
23:00 +20°C° 0.5 mm 3 mps 737 mmHg 92%

Pasado mañana, 4 Julio, Sábado

Tiempo Temperatura Precipitaciones Viento Presión Humedad
00:00 +20°C° 0 mm 3 mps 737 mmHg 92%
01:00 +19°C° 0 mm 3 mps 737 mmHg 92%
02:00 +19°C° 0 mm 3 mps 736 mmHg 92%
03:00 +19°C° 0 mm 3 mps 736 mmHg 92%
04:00 +19°C° 0 mm 3 mps 736 mmHg 92%
05:00 +20°C° 0 mm 3 mps 736 mmHg 92%
06:00 +21°C° 0 mm 3 mps 736 mmHg 89%
07:00 +24°C° 0 mm 3 mps 736 mmHg 85%
08:00 +25°C° 0 mm 3 mps 736 mmHg 82%
09:00 +26°C° 0 mm 3 mps 736 mmHg 77%
10:00 +27°C° 0 mm 4 mps 736 mmHg 73%
11:00 +28°C° 0 mm 4 mps 736 mmHg 68%
12:00 +28°C° 0.2 mm 4 mps 736 mmHg 69%
13:00 +28°C° 0.2 mm 4 mps 736 mmHg 70%
14:00 +28°C° 0.2 mm 4 mps 736 mmHg 70%
15:00 +27°C° 0.4 mm 4 mps 736 mmHg 73%
16:00 +27°C° 0.4 mm 3 mps 736 mmHg 77%
17:00 +26°C° 0.4 mm 3 mps 736 mmHg 80%
18:00 +25°C° 0.1 mm 2 mps 736 mmHg 83%
19:00 +24°C° 0.1 mm 2 mps 736 mmHg 86%
20:00 +21°C° 0.1 mm 2 mps 736 mmHg 90%
21:00 +21°C° 0 mm 2 mps 737 mmHg 91%
22:00 +20°C° 0 mm 2 mps 737 mmHg 93%
23:00 +20°C° 0 mm 2 mps 737 mmHg 95%

5 Julio, Domingo

Tiempo Temperatura Precipitaciones Viento Presión Humedad
00:00 +19°C° 0 mm 2 mps 737 mmHg 95%
01:00 +19°C° 0 mm 2 mps 737 mmHg 95%
02:00 +20°C° 0 mm 1 mps 737 mmHg 96%
03:00 +19°C° 0 mm 2 mps 737 mmHg 95%
04:00 +19°C° 0 mm 2 mps 737 mmHg 95%
05:00 +19°C° 0 mm 2 mps 737 mmHg 94%
06:00 +20°C° 0 mm 2 mps 738 mmHg 90%
07:00 +21°C° 0 mm 2 mps 738 mmHg 86%
08:00 +23°C° 0 mm 2 mps 738 mmHg 82%
09:00 +24°C° 0 mm 2 mps 738 mmHg 78%
10:00 +25°C° 0 mm 2 mps 738 mmHg 75%
11:00 +26°C° 0 mm 2 mps 738 mmHg 71%
12:00 +26°C° 0.2 mm 2 mps 738 mmHg 70%
13:00 +26°C° 0.2 mm 2 mps 738 mmHg 69%
14:00 +26°C° 0.2 mm 2 mps 738 mmHg 68%
15:00 +26°C° 0.4 mm 1 mps 737 mmHg 69%
16:00 +26°C° 0.4 mm 1 mps 737 mmHg 71%
17:00 +26°C° 0.4 mm 1 mps 737 mmHg 72%
18:00 +25°C° 0.1 mm 1 mps 737 mmHg 75%
19:00 +23°C° 0.1 mm 1 mps 737 mmHg 79%
20:00 +22°C° 0.1 mm 1 mps 737 mmHg 83%
21:00 +21°C° 0 mm 1 mps 737 mmHg 84%
22:00 +21°C° 0 mm 1 mps 737 mmHg 85%
23:00 +20°C° 0 mm 1 mps 737 mmHg 87%

6 Julio, Lunes

Tiempo Temperatura Precipitaciones Viento Presión Humedad
00:00 +20°C° 0 mm 1 mps 737 mmHg 87%
01:00 +19°C° 0 mm 1 mps 737 mmHg 88%
02:00 +19°C° 0 mm 1 mps 737 mmHg 88%
03:00 +19°C° 0 mm 1 mps 737 mmHg 87%
04:00 +20°C° 0 mm 1 mps 737 mmHg 87%
05:00 +20°C° 0 mm 1 mps 737 mmHg 86%
06:00 +22°C° 0 mm 1 mps 737 mmHg 82%
07:00 +23°C° 0 mm 1 mps 737 mmHg 78%
08:00 +24°C° 0 mm 1 mps 737 mmHg 73%
09:00 +25°C° 0 mm 1 mps 738 mmHg 70%
10:00 +26°C° 0 mm 1 mps 738 mmHg 66%
11:00 +28°C° 0 mm 1 mps 738 mmHg 62%
12:00 +28°C° 0 mm 1 mps 737 mmHg 61%
13:00 +28°C° 0 mm 1 mps 737 mmHg 60%
14:00 +28°C° 0 mm 1 mps 737 mmHg 59%
15:00 +28°C° 0 mm 1 mps 737 mmHg 62%
16:00 +28°C° 0 mm 1 mps 737 mmHg 65%
17:00 +28°C° 0 mm 2 mps 736 mmHg 69%
18:00 +26°C° 0 mm 1 mps 737 mmHg 72%
19:00 +24°C° 0 mm 1 mps 737 mmHg 75%
20:00 +22°C° 0 mm 1 mps 737 mmHg 78%
21:00 +22°C° 0 mm 1 mps 737 mmHg 79%
22:00 +21°C° 0 mm 1 mps 737 mmHg 80%
23:00 +20°C° 0 mm 1 mps 737 mmHg 81%

7 Julio, Martes

Tiempo Temperatura Precipitaciones Viento Presión Humedad
00:00 +20°C° 0 mm 1 mps 737 mmHg 81%
01:00 +17°C° 0 mm 0 mps 737 mmHg 82%
02:00 +17°C° 0 mm 0 mps 737 mmHg 83%
03:00 +20°C° 0 mm 1 mps 737 mmHg 83%
04:00 +20°C° 0 mm 1 mps 737 mmHg 84%
05:00 +21°C° 0 mm 1 mps 737 mmHg 84%
06:00 +23°C° 0 mm 2 mps 737 mmHg 82%
07:00 +24°C° 0 mm 2 mps 737 mmHg 81%
08:00 +26°C° 0 mm 3 mps 737 mmHg 79%
09:00 +27°C° 0.6 mm 3 mps 737 mmHg 76%
10:00 +28°C° 0.6 mm 3 mps 737 mmHg 73%
11:00 +30°C° 0.6 mm 4 mps 737 mmHg 70%
12:00 +30°C° 0.2 mm 4 mps 736 mmHg 68%
13:00 +32°C° 0.2 mm 4 mps 736 mmHg 66%
14:00 +32°C° 0.2 mm 4 mps 736 mmHg 65%
15:00 +32°C° 0 mm 4 mps 735 mmHg 69%
16:00 +30°C° 0 mm 4 mps 735 mmHg 73%
17:00 +29°C° 0 mm 3 mps 735 mmHg 76%
18:00 +28°C° 0 mm 3 mps 735 mmHg 79%
19:00 +27°C° 0 mm 3 mps 734 mmHg 82%
20:00 +25°C° 0 mm 3 mps 734 mmHg 85%
21:00 +25°C° 0 mm 3 mps 734 mmHg 84%
22:00 +24°C° 0 mm 3 mps 734 mmHg 83%
23:00 +24°C° 0 mm 3 mps 734 mmHg 82%
Mostrar más